Current weather by "City, St" or "zip code"  
 

Current Conditions: Youngstown, Youngstown-Warren Regional Airport, OH

Overcast


30.0 F

Last Updated on Jan 19 2022, 9:51 pm EST
Humidity: 69%
Wind Speed: NW 17.3 mph
Barometer 30.05 in
Dewpoint: 21.0 F
Visibility: 10.00 mi
Precip: --
Heat Index: NA
Wind Chill: 18 F
Current conditions at:

Youngstown, Youngstown-Warren Regional Airport, OH (KYNG)

Lat: 41.25444 Lon: 80.67389

Local Radar Image active severe weather and emergency alerts image image weather storm and storm spotter reports image weather observation monitoring service image
Local
Radar
Active
Alerts
Storm Reports Obs
Monitoring

Sign-up For Email & Text Message Weather Alert Notification Services



Advertise Here

Observation History for Youngstown, Youngstown-Warren Regional Airport, OH


Time Wind
(mph)
Vis
(mi)
Weather Precip (in) Temperature (F) Relative
Humidity
Wind
Chill
(F)
Heat
Index
(F)
Pressure
Air Dwpt altimeter
(in)
sea level
(mb)
Rmks
9:51 pm EST NW 17.3 10.00 Overcast -- 30.0 21.0 69% 18 NA 30.05 1018.8
8:51 pm EST NW 15.0 10.00 Overcast -- 33.0 24.1 70% 23 NA 30.02 1017.5
7:51 pm EST NW 15.0 G 21.9 10.00 Overcast -- 35.0 25.0 67% 25 NA 29.99 1016.5
6:51 pm EST NW 13.8 G 19.6 10.00 Overcast -- 37.0 28.0 70% 28 NA 29.96 1015.5
5:51 pm EST W 10.4 10.00 Overcast -- 40.0 30.9 70% 33 NA 29.93 1014.3
4:51 pm EST W 12.7 10.00 Overcast -- 41.0 30.0 65% 34 NA 29.90 1013.4
3:51 pm EST W 13.8 10.00 Overcast -- 42.0 30.0 62% 35 NA 29.89 1013.2
2:51 pm EST W 15.0 G 24.2 10.00 Overcast -- 42.0 30.9 65% 34 NA 29.87 1012.4
1:51 pm EST SW 16.1 10.00 Overcast -- 41.0 30.9 67% 33 NA 29.85 1011.8
12:51 pm EST SW 15.0 10.00 Overcast -- 40.0 30.9 70% 32 NA 29.86 1012.2
11:51 am EST SW 15.0 G 26.5 10.00 Overcast -- 40.0 30.9 70% 32 NA 29.86 1012.1
10:51 am EST SW 15.0 G 26.5 10.00 Overcast -- 39.0 30.0 70% 31 NA 29.87 1012.6
9:51 am EST SW 13.8 G 27.6 10.00 Overcast -- 39.0 28.9 67% 31 NA 29.86 1012.4
8:51 am EST SW 11.5 10.00 Overcast -- 38.0 28.9 70% 31 NA 29.84 1011.7
7:51 am EST SW 13.8 10.00 Overcast -- 37.0 28.0 70% 28 NA 29.83 1011.3
6:51 am EST SW 10.4 10.00 Overcast -- 35.0 26.1 70% 27 NA 29.82 1011.0
5:51 am EST S 11.5 10.00 Mostly Cloudy -- 32.0 23.0 69% 23 NA 29.82 1011.0
4:51 am EST S 12.7 10.00 Mostly Cloudy -- 32.0 23.0 69% 22 NA 29.83 1011.2
3:51 am EST S 9.2 10.00 Overcast -- 32.0 23.0 69% 24 NA 29.85 1012.2
2:51 am EST S 11.5 10.00 Overcast -- 31.0 23.0 72% 22 NA 29.86 1012.5
1:51 am EST S 13.8 G 20.7 10.00 Overcast -- 30.0 21.9 72% 19 NA 29.87 1012.9
12:51 am EST S 10.4 10.00 Overcast -- 29.0 21.0 72% 20 NA 29.90 1013.8
11:51 pm EST S 10.4 G 21.9 10.00 Overcast -- 27.0 19.9 75% 17 NA 29.92 1014.7
10:51 pm EST S 13.8 G 20.7 10.00 Overcast -- 26.0 19.0 75% 14 NA 29.94 1015.4

Regional Weather Observation


Ashtabula - Northeast Ohio Regional Airport, OH (KHZY)

Overcast
28.0 F

Portage County Airport, OH (KPOV)

Overcast
28.0 F

New Castle, New Castle Municipal Airport, PA (KUCP)

Overcast
33.0 F

Port Meadville Airport, PA (KGKJ)

Overcast
28.0 F

Willoughby, OH (KLNN)

Overcast
28.0 F

Cleveland / Cuyahoga, OH (KCGF)

Overcast
27.0 F

Advertise Here


Advertise Here